Regional Weather Roundup
Issued by NWS

Home | Current Version | Previous Version | Text Only | Print | Product List | Glossary Off
Versions: 1 2 3 4 5 6 7 8 9 10 11 12 13 14 15 16 17 18 19 20 21 22 23 24 25 26 27 28 29 30 31 32 33 34 35 36 37 38 39 40 41 42 43 44 45 46 47 48 49 50

000
ASUS43 KLOT 031812
RWRIL

ILLINOIS REGIONAL WEATHER ROUNDUP
NATIONAL WEATHER SERVICE CHICAGO/ROMEOVILLE IL
100 PM CDT THU SEP 03 2015

NOTE: "FAIR" INDICATES FEW OR NO CLOUDS BELOW 12,000 FEET WITH NO
SIGNIFICANT WEATHER AND/OR OBSTRUCTIONS TO VISIBILITY.

* THESE STATIONS ARE NOT UNDER NWS QUALITY CONTROL. THEY ALSO MAY NOT
  REPORT WEATHER SUCH AS PRECIPITATION OR FOG.

ILZ001-002-007-009-015-016-024-031900-
NORTHWEST ILLINOIS

CITY           SKY/WX    TMP DP  RH WIND       PRES   REMARKS
MOLINE         SUNNY     90  71  53 SW10      29.93F HX  96
6HR MIN TEMP:  72; 6HR MAX TEMP:  91;

STERLING*      SUNNY     88  73  62 W10       29.92F HX  96
SAVANNA*       SUNNY     88  71  56 SW6       29.93F HX  93
$$

ILZ003-004-008-010-011-017-018-031900-
NORTH CENTRAL ILLINOIS

CITY           SKY/WX    TMP DP  RH WIND       PRES   REMARKS
ROCKFORD       MOSUNNY   87  71  58 W8        29.95F HX  93
6HR MIN TEMP:  71; 6HR MAX TEMP:  87;

FREEPORT*      MOSUNNY   85  72  66 SW8       29.96S HX  90
ROCHELLE*      MOSUNNY   85  72  65 SW7       29.95F HX  91
DE KALB*       CLOUDY    86  72  62 SW8       29.96F HX  92
PERU*          MOSUNNY   89  66  47 SW7G17    29.96F HX  91
$$

ILZ005-006-012>014-019>023-031900-
NORTHEAST ILLINOIS

CITY           SKY/WX    TMP DP  RH WIND       PRES   REMARKS
CHICAGO-OHARE  MOSUNNY   88  69  53 W13       29.93F HX  92
6HR MIN TEMP:  72; 6HR MAX TEMP:  88;

CHICAGO-MIDWAY PTSUNNY   90  68  48 SW15      29.93F HX  94
6HR MIN TEMP:  76; 6HR MAX TEMP:  91;

AURORA         MOSUNNY   89  72  56 SW10G17   29.95F HX  96
6HR MIN TEMP:  71; 6HR MAX TEMP:  89;

LANSING*       PTSUNNY   90  69  51 W14       29.95S HX  94
JOLIET*        MOSUNNY   89  71  53 W13G18    29.95S HX  95
WAUKEGAN       PTSUNNY   86  72  62 VRB5      29.92F HX  92
6HR MIN TEMP:  71; 6HR MAX TEMP:  86;

DUPAGE AIRPORT MOSUNNY   88  70  55 SW12G18   29.94F HX  93
6HR MIN TEMP:  69; 6HR MAX TEMP:  88;

KANKAKEE*      MOSUNNY   87  70  56 W9        29.96F HX  92
WHEELING       PTSUNNY   88  69  53 W13       29.93F HX  92
6HR MIN TEMP:  74; 6HR MAX TEMP:  89;

MORRIS*        PTSUNNY   88  71  55 W8        29.94F HX  94
ROMEOVILLE*    MOSUNNY   84  68  58 W10       29.95F HX  88
NORTHERLY ISL    N/A     87  65  47 W8          N/A  HX  89
$$

LMZ740>746-031900-
SOUTHERN LAKE MICHIGAN

STATION/POSITION SKY/WX   TEMP    WIND        PRES    VSBY  WAVE
                          AIR SEA DIR/SP/G                  HT/PER
                          (F)     (DEG/KT/KT) (MB)    (MI)  (FT/S)
SOUTHERN BUOY              73 72  220/  6/  6 1012.8F         1/ 3
WILMETTE HARBOR            80 61  100/  2/  4   N/A           0
HARRISON CRIB              85     240/ 14/ 17   N/A
BURNHAM HARBOR             86     290/ 10/ 11   N/A
CALUMET HARBOR             87     220/  9/ 14   N/A
BURNS HARBOR               84     220/  9/ 11 1014.6F
MICHIGAN CITY              81     230/  8/  9   N/A
MICHIGAN CITY 6N           79 74  240/  2/  4   N/A           1
ST. JOSEPH                 76 73  270/  6/  6   N/A           1/ 3
$$

ILZ025>027-034>036-040-047-049-050-058-095>099-031900-
WEST-CENTRAL ILLINOIS

CITY           SKY/WX    TMP DP  RH WIND       PRES   REMARKS
QUINCY         SUNNY     90  67  46 VRB6      29.96F HX  93
GALESBURG*     MOSUNNY   89  69  51 S9        29.95F HX  93
MACOMB*        SUNNY     90  66  44 SW6       29.97F HX  92
JACKSONVILLE*  MOSUNNY   91  68  46 W7        29.96F HX  95
PITTSFIELD*    SUNNY     91  67  45 SW8       29.98F HX  95
$$

ILZ028>032-037-038-041>044-048-051>054-059>061-031900-
CENTRAL ILLINOIS

CITY           SKY/WX    TMP DP  RH WIND       PRES   REMARKS
PONTIAC        PTSUNNY   89  72  57 W12       29.97F HX  95
BLOOMINGTON    MOSUNNY   91  70  50 SW9       29.99F HX  96
DECATUR        MOSUNNY   92  67  43 SW6       29.98F HX  95
PEORIA         MOSUNNY   93  66  40 W10       29.95F HX  96
6HR MIN TEMP:  71; 6HR MAX TEMP:  93;

LACON*         SUNNY     88  69  54 SW10      29.94F HX  92
LINCOLN*       PTSUNNY   94  66  39 SW3       29.95F HX  96
SPRINGFIELD    MOSUNNY   91  67  44 W9        29.97F HX  94
6HR MIN TEMP:  73; 6HR MAX TEMP:  93;

TAYLORVILLE    MOSUNNY   90  66  45 SW7       29.98F HX  92
$$

ILZ033-039-045-046-055>057-062-063-031900-
EAST-CENTRAL ILLINOIS

CITY           SKY/WX    TMP DP  RH WIND       PRES   REMARKS
CHAMPAIGN      MOSUNNY   89  66  46 W7        29.99F HX  91
MATTOON        SUNNY     90  64  42 W9        29.99F HX  91
PARIS*         MOSUNNY   91  68  47 W9        30.00F HX  94
$$

ILZ079-100>102-031900-
SOUTHWEST ILLINOIS

CITY           SKY/WX    TMP DP  RH WIND       PRES   REMARKS
ALTON          MOSUNNY   90  68  48 S7        29.98F HX  93
BELLEVILLE     SUNNY     91  71  52 VRB3      29.97F HX  97
CAHOKIA*       SUNNY     91  67  44 SW3       29.98F HX  94
SPARTA*        SUNNY     88  68  52 W5        30.01F HX  91
$$

ILZ064>066-069>071-074>076-080>082-084>086-088>090-092>094-031900-
SOUTH-CENTRAL ILLINOIS

CITY           SKY/WX    TMP DP  RH WIND       PRES   REMARKS
CARBONDALE     SUNNY     88  67  49 W5        30.00F HX  91
6HR MIN TEMP:  66; 6HR MAX TEMP:  88;

CAIRO*         SUNNY     87  73  62 SW3       30.00F HX  95
EFFINGHAM*     MOSUNNY   89  63  41 SW6       30.01F HX  90
MARION         MOSUNNY   90  68  48 S8        30.01F HX  93
MT. VERNON     PTSUNNY   90  70  51 SW10      30.00F HX  95
CENTRALIA*     SUNNY     91  72  52 SW3       29.99F HX  98
SALEM*         MOSUNNY   90  68  47 W6        29.99F HX  93
METROPOLIS*    SUNNY     90  71  53 CALM      30.00F HX  95
$$

ILZ067-068-072-073-078-083-087-091-031900-
SOUTHEAST ILLINOIS

CITY           SKY/WX    TMP DP  RH WIND       PRES   REMARKS
LAWRENCEVILLE  MOSUNNY   90  67  46 W7        30.00F HX  93
FLORA*         SUNNY     90  66  45 SW3       30.00F HX  92
FAIRFIELD*     SUNNY     87  70  55 W5        29.99F HX  92
HARRISBURG*    MOSUNNY   89  69  51 W3        30.00F HX  93
ROBINSON*      MOSUNNY   90  68  48 SW7       30.01S HX  93
CARMI*         MOSUNNY   89  69  51 S6        29.99F HX  93
$$

ABBREVIATIONS USED IN REMARKS
   TC - TEMPERATURE IN CELSIUS
  WCI - WIND CHILL INDEX
   HX - HEAT INDEX
  VSB - VISIBILITY
$$



USA.gov is the U.S. government's official web portal to all federal, state and local government web resources and services.